TimeEST,TemperatureF,Dew PointF,Humidity,Sea Level PressureIn,VisibilityMPH,Wind Direction,Wind SpeedMPH,Gust SpeedMPH,PrecipitationIn,Events,Conditions,WindDirDegrees,DateUTC
12:53 AM,30.9,21.0,67,29.95,10.0,West,9.2,-,N/A,,Mostly Cloudy,260,2013-02-15 05:53:00
1:53 AM,30.0,21.0,69,29.96,10.0,WSW,8.1,-,N/A,,Partly Cloudy,250,2013-02-15 06:53:00
2:53 AM,30.9,21.9,69,29.96,10.0,West,9.2,-,N/A,,Overcast,260,2013-02-15 07:53:00
3:53 AM,28.9,21.0,72,29.98,10.0,West,9.2,-,N/A,,Clear,260,2013-02-15 08:53:00
4:53 AM,30.0,23.0,75,29.98,10.0,West,6.9,-,N/A,,Overcast,270,2013-02-15 09:53:00
5:17 AM,30.2,23.0,75,29.97,10.0,West,6.9,-,N/A,,Overcast,270,2013-02-15 10:17:00
5:53 AM,30.0,23.0,75,30.01,10.0,North,9.2,-,N/A,,Overcast,350,2013-02-15 10:53:00
6:53 AM,30.0,23.0,75,30.03,10.0,NNW,4.6,-,0.00,,Overcast,340,2013-02-15 11:53:00
7:50 AM,28.4,23.0,80,30.02,10.0,NNW,5.8,-,0.00,,Overcast,340,2013-02-15 12:50:00
7:53 AM,28.9,23.0,78,30.05,10.0,NNW,8.1,-,0.00,,Overcast,340,2013-02-15 12:53:00
8:44 AM,28.4,23.0,80,30.05,5.0,NNE,11.5,-,0.00,Snow,Light Snow,20,2013-02-15 13:44:00
8:53 AM,28.0,21.0,75,30.08,4.0,North,11.5,-,0.00,Snow,Light Snow,10,2013-02-15 13:53:00
9:21 AM,28.4,21.2,74,30.07,6.0,North,10.4,-,0.00,Snow,Light Snow,350,2013-02-15 14:21:00
9:53 AM,28.0,21.0,75,30.10,9.0,North,11.5,-,0.00,,Overcast,350,2013-02-15 14:53:00
10:32 AM,28.4,19.4,69,30.09,7.0,North,10.4,-,0.00,,Overcast,350,2013-02-15 15:32:00
10:48 AM,28.4,21.2,74,30.09,9.0,North,11.5,-,0.00,,Overcast,360,2013-02-15 15:48:00
10:53 AM,28.9,19.0,67,30.12,10.0,North,12.7,-,0.00,,Overcast,360,2013-02-15 15:53:00
11:31 AM,28.4,19.4,69,30.09,10.0,North,8.1,-,N/A,,Overcast,350,2013-02-15 16:31:00
11:53 AM,30.0,19.9,66,30.12,9.0,NNW,12.7,18.4,0.00,Snow,Light Snow,340,2013-02-15 16:53:00
12:08 PM,28.4,19.4,69,30.10,7.0,North,8.1,-,0.00,Snow,Light Snow,350,2013-02-15 17:08:00
12:15 PM,28.4,19.4,69,30.10,5.0,NW,11.5,-,0.00,Snow,Light Snow,320,2013-02-15 17:15:00
12:40 PM,28.4,21.2,74,30.10,2.0,NNW,10.4,-,0.00,Snow,Light Snow,330,2013-02-15 17:40:00
12:53 PM,28.0,21.9,78,30.13,3.0,NW,6.9,-,0.00,Snow,Light Snow,320,2013-02-15 17:53:00
1:34 PM,28.4,21.2,74,30.09,10.0,NW,11.5,-,0.00,,Overcast,310,2013-02-15 18:34:00
1:53 PM,28.9,18.0,64,30.12,10.0,NW,13.8,-,0.00,,Overcast,310,2013-02-15 18:53:00
2:53 PM,30.9,15.1,52,30.12,10.0,WNW,17.3,-,N/A,,Mostly Cloudy,300,2013-02-15 19:53:00
3:53 PM,28.9,15.1,56,30.14,10.0,NW,11.5,-,N/A,,Overcast,320,2013-02-15 20:53:00
4:53 PM,28.9,16.0,58,30.15,10.0,NNW,9.2,-,N/A,,Overcast,330,2013-02-15 21:53:00
5:53 PM,27.0,14.0,58,30.16,10.0,WNW,13.8,-,N/A,,Mostly Cloudy,290,2013-02-15 22:53:00
6:53 PM,26.1,15.1,63,30.17,10.0,WNW,9.2,-,N/A,,Mostly Cloudy,300,2013-02-15 23:53:00
7:53 PM,23.0,14.0,68,30.18,10.0,NW,4.6,-,N/A,,Clear,310,2013-02-16 00:53:00
8:53 PM,21.9,15.1,75,30.18,10.0,Calm,Calm,-,N/A,,Scattered Clouds,0,2013-02-16 01:53:00
9:53 PM,23.0,15.1,72,30.18,10.0,West,3.5,-,N/A,,Overcast,260,2013-02-16 02:53:00
10:53 PM,24.1,14.0,65,30.16,10.0,Calm,Calm,-,N/A,,Mostly Cloudy,0,2013-02-16 03:53:00
11:53 PM,24.1,16.0,71,30.14,10.0,Calm,Calm,-,N/A,,Overcast,0,2013-02-16 04:53:00